BLOCK DM-SL DEB, 46091

Orbit data source: Space-Track

BLOCK DM-SL DEB, 46091 is space debris in GEO originally from a launch on Tue, 24 Dec 2019 UTC launched from the Tyuratam Missile And Space Complex (TTMTR). Debris objects in space refer to the collection of defunct objects orbiting the Earth. Examples of debris include non-operational satellites, rocket bodies, and fragments generated from explosions, collisions, or faulty payload assembly.

Loading next visibility...
Identifier
46091, 2019-095E
Orbit
GEO
Country
Flag of CISCIS
Related business
Manufacturer
Lavochkin
Mission
Spacecraft
Bus & Motor
Unknown
Mass
Unknown
Launch date (UTC)
2019-12-24 (6 years ago)
Launch vehicle
Unknown
Launch site
Tyuratam Missile And Space Complex (TTMTR)
Object type
Payload
Rocket body
Debris
Shape & HBR
Unknown
Radar Cross Section
Medium (>0.1 m² and <1 m²)

Expand to show TLE details & history
Last TLE update: 5 days ago

TLE from 5 days ago
0 BLOCK DM-SL DEB
1 46091U 19095E   25256.57397042 -.00000139  00000-0  00000-0 0  9995
2 46091   4.6339  76.9809 0060375 194.8130 165.2485  1.03263894 20888
Epoch: 2025-09-13T13:46Z
TLE epoch observation values (Epoch: 2025-09-13T13:46:31.044Z)
Latitude
-0°
Longitude
-122.23089°
Altitude
35,208.095 km
Speed
3.087 km/s
True Right ascension
05h 08m 48s
True Declination
0° 00' 00"
Sunlit
Object was in daylight at epoch
Visualization orbit readout
Latitude
Unknown
Longitude
Unknown
Altitude
Unknown
Speed
Unknown
Apparent Right ascension
Unknown
Apparent Declination
Unknown
Sunlit
N/A
Visualization observer readout
Local Sidereal Time
14:56:06
Azimuth
Unknown
Elevation
Unknown
Doppler factor
Unknown
Orbital elements
Apogee altitude
35,218.832 km
Perigee altitude
34,719.563 km
Semi-major axis
41,347.335 km
Eccentricity
0.00604
Inclination
4.6339°
RAAN
76.9809°
Arg. of periapsis
194.813°
True anomaly
165.42339°
Mean anomaly
165.2485°
Eccentric anomaly
165.33607°
Mean motion
0.25815 °/min
Orbital period
1,394.54 mins
BSTAR
0
Loading maneuver chart data...
Computing Atmospheric mass density...
Loading historical data...
Loading historical data...
Loading historical data...
Loading historical data...
Loading historical data...
Loading historical data...
Loading historical data...
Other satellites on launch #95 in the year 2019 (2019-12-24 UTC)

Documentation

Showing up to 5 results
|